DG5TKE Weather Reports


time (UTC)temp
C
wind
direction
speed
KPH
gust
KPH
rain 1hr
cm
rain 24hr
cm
rain mn
cm
humidity
%
barometer
mb
20260905112007 20 251 8.0 29.0 0.00 1.02 0.05 56 1016.9
20260905111003 20 278 6.4 30.6 0.00 1.02 0.05 58 1016.9
20260905110006 20 229 8.0 25.7 0.00 1.02 0.05 58 1017.1
20260905105003 20 224 9.7 20.9 0.00 1.02 0.05 57 1017.0
20260905104006 20 240 9.7 29.0 0.00 1.02 0.05 57 1017.1
20260905103218 20 264 8.0 29.0 0.00 1.02 0.05 59 1017.1
20260905102007 19 247 8.0 20.9 0.00 1.02 0.05 64 1017.1
20260905101003 19 255 4.8 27.4 0.00 1.02 0.05 60 1017.1
20260905100003 19 235 6.4 16.1 0.00 1.02 0.05 63 1017.1
20260905095003 19 211 9.7 22.5 0.00 1.02 0.05 62 1017.2
20260905094221 19 232 8.0 24.1 0.00 1.02 0.05 63 1017.0
20260905093003 18 246 8.0 27.4 0.00 1.02 0.05 63 1016.9
20260905092221 18 232 8.0 27.4 0.00 1.02 0.05 64 1016.8
20260905091003 18 232 8.0 25.7 0.00 1.02 0.05 64 1016.8
20260905090007 18 238 9.7 24.1 0.00 1.02 0.05 66 1016.8
20260905085006 18 238 8.0 24.1 0.00 1.02 0.05 66 1016.8
20260905084006 18 258 9.7 24.1 0.00 1.02 0.05 69 1016.5
20260905083006 18 213 9.7 24.1 0.00 1.02 0.05 69 1016.4
20260905082006 18 244 8.0 24.1 0.00 1.02 0.05 69 1016.4
20260905081003 18 210 6.4 20.9 0.00 1.02 0.05 72 1016.3
20260905080004 17 234 4.8 14.5 0.00 1.02 0.05 72 1016.3
20260905075006 17 231 6.4 14.5 0.00 1.02 0.05 73 1016.3
20260905074006 17 219 8.0 20.9 0.00 1.02 0.05 75 1016.3
20260905073006 17 201 8.0 14.5 0.00 1.02 0.05 76 1016.2
20260905072220 16 196 6.4 17.7 0.00 1.02 0.05 77 1016.2
20260905071006 16 200 6.4 12.9 0.00 1.02 0.05 79 1016.2
20260905070004 16 197 6.4 19.3 0.00 1.02 0.05 81 1016.1
20260905065006 16 200 6.4 16.1 0.00 1.02 0.05 82 1016.1
20260905064006 15 199 6.4 16.1 0.00 1.02 0.05 83 1016.1
20260905063218 15 201 8.0 16.1 0.00 1.02 0.05 84 1016.0
20260905062006 15 200 6.4 19.3 0.00 1.02 0.05 85 1015.9
20260905061218 14 201 6.4 12.9 0.00 1.02 0.05 87 1015.8
20260905060220 14 199 6.4 12.9 0.00 1.02 0.05 89 1015.7
20260905055003 13 194 4.8 11.3 0.00 1.02 0.05 91 1015.4
20260905054006 13 199 6.4 12.9 0.00 1.02 0.05 92 1015.3
20260905053218 13 200 6.4 16.1 0.00 1.02 0.05 92 1015.3
20260905052006 12 198 4.8 11.3 0.00 1.02 0.05 92 1015.3
20260905051006 12 195 4.8 9.7 0.00 1.02 0.05 92 1015.1
20260905050006 12 205 3.2 6.4 0.00 1.02 0.05 92 1015.0
20260905045003 12 203 3.2 8.0 0.00 1.02 0.05 92 1014.9
20260905044217 12 198 3.2 8.0 0.00 1.02 0.05 92 1014.8
20260905043003 12 203 3.2 9.7 0.00 1.02 0.05 92 1014.6
20260905042006 12 201 3.2 8.0 0.00 1.02 0.05 92 1014.6
20260905041003 12 207 3.2 8.0 0.00 1.02 0.05 91 1014.5
20260905040006 12 210 3.2 6.4 0.00 1.02 0.05 91 1014.3
20260905035006 12 194 1.6 6.4 0.00 1.02 0.05 91 1014.3
20260905034006 13 207 3.2 4.8 0.00 1.02 0.05 90 1014.2
20260905033003 13 216 1.6 4.8 0.00 1.02 0.05 90 1014.0
20260905032003 13 221 0.0 4.8 0.00 1.02 0.05 90 1014.0
20260905031003 13 0 0.0 0.0 0.00 1.02 0.05 90 1014.0
20260905030003 13 213 1.6 3.2 0.00 1.02 0.05 90 1014.0
20260905025003 14 205 1.6 4.8 0.00 1.02 0.05 89 1014.0
20260905024003 14 195 0.0 4.8 0.00 1.02 0.05 90 1014.0
20260905023003 14 168 3.2 8.0 0.00 1.02 0.05 90 1013.8
20260905022003 14 213 1.6 9.7 0.00 1.02 0.05 90 1013.7
20260905021220 14 120 0.0 4.8 0.00 1.02 0.05 91 1013.5
20260905020220 14 0 0.0 3.2 0.00 1.02 0.05 91 1013.3
20260905015003 14 280 1.6 4.8 0.00 1.02 0.05 91 1013.1
20260905014006 14 143 0.0 6.4 0.00 1.02 0.05 91 1012.8
20260905013003 14 176 0.0 8.0 0.00 1.02 0.05 91 1012.9
20260905012003 14 246 1.6 6.4 0.00 1.02 0.05 92 1012.8
20260905011003 14 191 3.2 9.7 0.00 1.02 0.05 92 1012.7
20260905010003 14 180 0.0 11.3 0.00 1.02 0.05 92 1012.7
20260905005003 14 180 1.6 4.8 0.00 1.02 0.05 92 1012.4
20260905004006 15 105 0.0 4.8 0.00 1.02 0.05 92 1012.4
20260905003003 15 0 0.0 3.2 0.03 1.02 0.05 92 1012.4
20260905002003 15 152 1.6 1.6 0.03 1.02 0.05 92 1012.3
20260905001222 15 189 3.2 9.7 0.03 1.02 0.05 91 1012.4
20260905000006 15 171 1.6 8.0 0.03 1.02 0.05 91 1012.1
20260904235003 15 205 0.0 8.0 0.03 1.02 0.05 91 1012.4
20260904234006 15 216 1.6 4.8 0.05 1.02 0.05 91 1012.3
20260904233006 15 218 1.6 3.2 0.03 0.99 0.05 91 1012.0
20260904232006 15 158 3.2 8.0 0.03 0.99 0.05 91 1012.0
20260904231007 15 211 3.2 9.7 0.05 0.99 0.05 91 1012.3
20260904230006 15 278 3.2 9.7 0.05 0.99 0.05 90 1012.1
20260904225221 15 335 1.6 9.7 0.05 0.99 0.05 90 1012.2
20260904224221 15 138 1.6 4.8 0.05 0.99 0.05 90 1012.3
20260904223006 15 172 1.6 4.8 0.05 0.99 0.03 90 1012.4
20260904222003 15 201 6.4 12.9 0.05 0.99 0.03 90 1012.4
20260904221006 15 190 4.8 16.1 0.05 0.97 0.00 90 1012.2
20260904220004 15 175 3.2 14.5 0.05 0.97 0.00 91 1012.1
20260904215006 15 160 3.2 11.3 0.05 0.97 0.97 91 1012.1
20260904214006 15 240 4.8 16.1 0.05 0.94 0.94 91 1011.3
20260904213003 15 260 6.4 19.3 0.05 0.94 0.94 91 1011.4
20260904212006 15 276 8.0 17.7 0.13 0.94 0.94 91 1011.3
20260904211003 15 273 8.0 22.5 0.41 0.91 0.91 91 1011.0
20260904210004 15 290 9.7 29.0 0.61 0.91 0.91 90 1010.7
20260904205007 16 278 6.4 29.0 0.71 0.89 0.89 90 1010.7
20260904204006 16 347 6.4 17.7 0.81 0.89 0.89 89 1010.4
20260904203220 16 313 6.4 20.9 0.89 0.89 0.89 89 1010.1
20260904202220 16 338 6.4 17.7 0.84 0.84 0.84 89 1010.3
20260904201220 17 330 6.4 25.7 0.64 0.64 0.64 88 1010.2
20260904200007 17 337 6.4 19.3 0.33 0.33 0.33 87 1010.4
20260904195218 18 334 8.0 17.7 0.23 0.23 0.23 86 1009.9
20260904194003 18 343 4.8 20.9 0.08 0.08 0.08 83 1009.7
20260904193220 19 6 6.4 20.9 0.00 0.00 0.00 81 1009.5
20260904192006 20 357 9.7 25.7 0.00 0.00 0.00 79 1009.2
20260904191003 20 1 9.7 24.1 0.00 0.00 0.00 76 1009.3
20260904190007 22 358 8.0 27.4 0.00 0.00 0.00 69 1008.8
20260904185218 23 339 1.6 29.0 0.00 0.00 0.00 66 1008.3
20260904184006 24 184 1.6 3.2 0.00 0.00 0.00 66 1007.3
20260904183006 24 271 0.0 4.8 0.00 0.00 0.00 65 1007.2
20260904182003 24 229 1.6 4.8 0.00 0.00 0.00 65 1007.0
20260904181003 25 217 0.0 3.2 0.00 0.00 0.00 65 1006.9
20260904180003 25 265 1.6 3.2 0.00 0.00 0.00 64 1006.9
20260904175217 25 264 1.6 3.2 0.00 0.00 0.00 63 1006.7
20260904174003 26 272 0.0 4.8 0.00 0.00 0.00 61 1006.7
20260904173006 26 282 0.0 3.2 0.00 0.00 0.00 60 1006.6
20260904172003 26 278 3.2 4.8 0.00 0.00 0.00 60 1006.6
20260904171217 26 223 3.2 11.3 0.00 0.00 0.00 59 1006.6
20260904170003 26 216 4.8 8.0 0.00 0.00 0.00 60 1006.6
20260904165006 26 223 4.8 12.9 0.00 0.00 0.00 60 1006.5
20260904164006 26 213 3.2 14.5 0.00 0.00 0.00 59 1006.5
20260904163003 26 210 3.2 9.7 0.00 0.00 0.00 60 1006.6
20260904162003 26 221 3.2 9.7 0.00 0.00 0.00 59 1006.7
20260904161003 26 206 3.2 12.9 0.00 0.00 0.00 59 1006.7
20260904160006 26 219 4.8 17.7 0.00 0.00 0.00 59 1006.7
20260904155003 26 200 6.4 22.5 0.00 0.00 0.00 59 1006.9
20260904154003 26 222 6.4 16.1 0.00 0.00 0.00 59 1006.8
20260904153006 26 205 6.4 17.7 0.00 0.00 0.00 59 1006.9
20260904152003 26 215 9.7 20.9 0.00 0.00 0.00 59 1006.9
20260904151006 26 215 11.3 29.0 0.00 0.00 0.00 58 1006.9
20260904150003 26 218 12.9 24.1 0.00 0.00 0.00 58 1007.0
20260904145003 27 213 12.9 27.4 0.00 0.00 0.00 58 1006.9
20260904144003 27 215 12.9 24.1 0.00 0.00 0.00 58 1006.9
20260904143003 27 206 14.5 30.6 0.00 0.05 0.00 58 1007.0
20260904142006 27 212 14.5 32.2 0.00 0.08 0.00 58 1006.9
20260904141007 27 221 12.9 32.2 0.00 0.08 0.00 58 1007.0
20260904140003 26 217 14.5 25.7 0.00 0.08 0.00 59 1007.1
20260904135006 26 223 17.7 33.8 0.00 0.13 0.00 58 1007.3
20260904134007 27 219 16.1 33.8 0.00 0.15 0.00 57 1007.5
20260904133003 27 222 14.5 32.2 0.00 0.20 0.00 57 1007.3
20260904132007 27 221 12.9 32.2 0.00 0.23 0.00 58 1007.3
20260904131003 27 211 14.5 32.2 0.00 0.25 0.00 59 1007.4
20260904130221 27 220 14.5 37.0 0.00 0.25 0.00 60 1007.5
20260904125006 26 217 12.9 33.8 0.00 0.25 0.00 62 1007.7
20260904124006 26 222 14.5 29.0 0.00 0.25 0.00 63 1008.0
20260904123003 26 224 14.5 33.8 0.00 0.25 0.00 63 1008.1
20260904122003 26 215 14.5 38.6 0.00 0.25 0.00 64 1008.2
20260904121006 26 218 14.5 30.6 0.00 0.25 0.00 64 1008.7
20260904120217 26 217 9.7 29.0 0.00 0.25 0.00 64 1008.8
20260904115003 25 224 9.7 40.2 0.00 0.25 0.00 66 1008.9
20260904114006 24 219 11.3 27.4 0.00 0.25 0.00 69 1009.2
20260904113003 24 215 11.3 24.1 0.00 0.25 0.00 68 1009.2